Retour au catalogue

STARLINK-3776

ActifCommunicationsVLEO
NORAD 52288·PAYLOAD·🇺🇸 United States

Lancé Apr 21, 2022 depuis Cape Canaveral Space Force Station

Loading…

Prochains Passages (prochaines 24 heures)

TLE

FraisSource: CelesTrak SupGP

Époque: Sep 15, 2026, 02:47 UTC

1 52288C 22041AD  26258.11645833  .00041316  00000+0  12201-2 0  2588
2 52288  53.1575 316.5648 0001336  95.8150 283.4160 15.34385223    18

Suivez STARLINK-3776 en temps réel avec AllMySat

Download on the App Store